Location: Banff
(51.1670°N, 115.5670°W)
Time: 04:06:29
(UTC-06:00)

Amateur Radio Satellites - All Passes

Search period start: 21 September 2014 03:36
Search period end: 22 September 2014 03:36
Location: Banff, 51.1670°N, 115.5670°W

Satellite Date Start Highest point End Downlink Frequencies (MHz)
Time Altitude Azimuth
Gurwin Techsat 1B 21 Sep 03:37:25 03:41:40 24° 91° (E) 03:45:53 435.225 FM
ITAMSAT 1 21 Sep 03:39:42 03:44:42 44° 98° (E) 03:49:40 435.822 SSB
Uribyol 2 21 Sep 03:43:28 03:48:33 49° 100° (E) 03:53:37 436.500 FM
JAS-1B 21 Sep 03:51:33 03:57:21 59° 101° (ESE) 04:02:57 435.800 - 435.900 CW/SSB
Oscar 19 21 Sep 03:53:14 03:58:25 72° 289° (WNW) 04:03:32 437.125 CW, 437.150 USB
TMSAT-1 21 Sep 04:13:06 04:17:56 34° 95° (E) 04:22:44 436.925 FM
AO-27 21 Sep 04:15:03 04:20:19 84° 105° (ESE) 04:25:33 436.795 MHz FM
OPAL 21 Sep 04:23:26 04:28:10 36° 60° (ENE) 04:32:56 ?
KITSAT 1 21 Sep 04:32:06 04:40:15 83° 50° (NE) 04:48:20 435.175 FM
AO-Echo 21 Sep 04:32:36 04:37:21 60° 290° (WNW) 04:42:13 ?
Oscar 16 21 Sep 04:32:40 04:37:24 36° 297° (WNW) 04:42:04 437.025 USB, Beacon 2401.1428
UOSAT-12 21 Sep 04:39:55 04:43:04 17° 350° (N) 04:46:14 437.025 FM, 437.400 FM
SO-50 21 Sep 04:52:48 04:56:23 21° 20° (NNE) 05:00:01 436.795 FM
RS-15 21 Sep 04:59:15 05:09:39 51° 115° (ESE) 05:19:59 29.354 - 29.394 USB, Beacon 29.352 USB
ISS 21 Sep 05:10:32 05:13:52 75° 164° (SSE) 05:17:12 145.800 FM
AO-7 21 Sep 05:16:09 05:23:29 34° 94° (E) 05:30:47 29.400 - 29.500 MHz
Gurwin Techsat 1B 21 Sep 05:16:48 05:22:04 62° 290° (WNW) 05:27:18 435.225 FM
ITAMSAT 1 21 Sep 05:19:26 05:24:06 34° 298° (WNW) 05:28:45 435.822 SSB
Uribyol 2 21 Sep 05:23:19 05:27:51 31° 299° (WNW) 05:32:22 436.500 FM
Oscar 19 21 Sep 05:34:06 05:36:55 15° 309° (NW) 05:39:43 437.125 CW, 437.150 USB
JAS-1B 21 Sep 05:42:53 05:47:42 27° 304° (NW) 05:52:21 435.800 - 435.900 CW/SSB
Uosat F 21 Sep 05:44:03 05:48:46 39° 98° (E) 05:53:28 435.120 FM
TMSAT-1 21 Sep 05:52:58 05:57:58 43° 295° (WNW) 06:02:57 436.925 FM
AO-27 21 Sep 05:55:35 05:59:14 20° 305° (NW) 06:02:54 436.795 MHz FM
OPAL 21 Sep 06:02:05 06:07:00 42° 260° (W) 06:11:58 ?
AO-Echo 21 Sep 06:13:39 06:15:14 12° 309° (NW) 06:16:50 ?
JAS-2 21 Sep 06:18:37 06:23:00 20° 89° (E) 06:27:42 435.800 - 435.900 CW/SSB, 435.910 FM
UOSAT-12 21 Sep 06:21:33 06:24:55 19° 15° (NNE) 06:28:16 437.025 FM, 437.400 FM
KITSAT 1 21 Sep 06:28:12 06:34:53 30° 252° (WSW) 06:41:34 435.175 FM
SO-50 21 Sep 06:33:12 06:37:55 56° 42° (NE) 06:42:41 436.795 FM
STRAND 1 21 Sep 06:45:43 06:50:29 42° 65° (ENE) 06:55:17 ?
ISS 21 Sep 06:47:16 06:50:37 82° 4° (N) 06:53:57 145.800 FM
Gurwin Techsat 1B 21 Sep 06:58:35 07:01:03 13° 311° (NW) 07:03:31 435.225 FM
AO-7 21 Sep 07:08:41 07:16:56 71° 296° (WNW) 07:25:08 29.400 - 29.500 MHz
RS-15 21 Sep 07:10:53 07:21:47 66° 322° (NW) 07:32:46 29.354 - 29.394 USB, Beacon 29.352 USB
Hamsat 21 Sep 07:22:26 07:26:33 45° 98° (E) 07:30:36 145.90 MHz
Uosat F 21 Sep 07:22:59 07:27:32 35° 297° (WNW) 07:32:04 435.120 FM
SO-67 21 Sep 07:43:41 07:44:32 11° 87° (E) 07:45:22 435.3500 MHz FM
MaSat-1 21 Sep 07:45:17 07:45:32 10° 99° (E) 07:45:46 437.345 MHz
UOSAT-12 21 Sep 08:01:39 08:06:13 43° 38° (NE) 08:10:43 437.025 FM, 437.400 FM
JAS-2 21 Sep 08:02:46 08:08:41 85° 287° (WNW) 08:15:23 435.800 - 435.900 CW/SSB, 435.910 FM
SO-50 21 Sep 08:14:07 08:18:17 30° 242° (WSW) 08:22:30 436.795 FM
ISS 21 Sep 08:24:01 08:27:15 48° 204° (SSW) 08:30:28 145.800 FM
STRAND 1 21 Sep 08:25:13 08:29:47 33° 265° (W) 08:34:24 ?
Hamsat 21 Sep 08:58:52 09:02:17 24° 298° (WNW) 09:05:40 145.90 MHz
AO-7 21 Sep 09:02:19 09:08:27 24° 319° (NW) 09:14:35 29.400 - 29.500 MHz
SO-67 21 Sep 09:14:33 09:18:00 68° 286° (WNW) 09:21:26 435.3500 MHz FM
MaSat-1 21 Sep 09:16:27 09:21:23 59° 117° (ESE) 09:26:07 437.345 MHz
RS-15 21 Sep 09:26:15 09:36:26 41° 354° (N) 09:46:46 29.354 - 29.394 USB, Beacon 29.352 USB
UOSAT-12 21 Sep 09:41:57 09:46:24 40° 239° (WSW) 09:50:46 437.025 FM, 437.400 FM
JAS-2 21 Sep 09:49:04 09:53:10 20° 306° (NW) 09:57:35 435.800 - 435.900 CW/SSB, 435.910 FM
HO-68 21 Sep 09:52:21 09:58:28 29° 92° (E) 10:04:32 435.675 MHz FM
ISS 21 Sep 10:01:56 10:03:21 12° 222° (SW) 10:04:47 145.800 FM
Oscar 11 21 Sep 10:38:07 10:41:26 21° 91° (E) 10:44:44 145.825 FM, Beacon 2401.500 USB
MaSat-1 21 Sep 10:54:03 10:58:25 30° 316° (NW) 11:02:34 437.345 MHz
UKube-1 21 Sep 10:56:16 11:00:21 37° 98° (E) 11:04:24 145.840 MHz, 145.915 MHz
AO-7 21 Sep 10:56:57 10:58:18 11° 346° (NNW) 10:59:39 29.400 - 29.500 MHz
HO-68 21 Sep 11:39:38 11:46:47 71° 293° (WNW) 11:53:55 435.675 MHz FM
RS-15 21 Sep 11:41:00 11:51:39 51° 27° (NNE) 12:02:36 29.354 - 29.394 USB, Beacon 29.352 USB
Oscar 19 21 Sep 12:02:55 12:03:08 10° 46° (NE) 12:03:21 437.125 CW, 437.150 USB
Sapphire 21 Sep 12:04:45 12:08:29 19° 107° (ESE) 12:12:15 437.095 MHz 1200 baud AX-25 AFSK
FUNcube-1 21 Sep 12:08:26 12:13:05 68° 102° (ESE) 12:17:39 145.950 - 145.970 MHz USB
Oscar 11 21 Sep 12:13:41 12:17:55 51° 290° (WNW) 12:22:07 145.825 FM, Beacon 2401.500 USB
PCSat 21 Sep 12:30:16 12:35:00 32° 113° (ESE) 12:39:46 145.825 MHz
UKube-1 21 Sep 12:32:41 12:36:28 30° 297° (WNW) 12:40:15 145.840 MHz, 145.915 MHz
MaSat-1 21 Sep 12:35:33 12:36:34 11° 338° (NNW) 12:37:34 437.345 MHz
Oscar 16 21 Sep 12:38:10 12:41:42 19° 54° (NE) 12:45:14 437.025 USB, Beacon 2401.1428
AO-7 21 Sep 12:46:11 12:47:23 10° 14° (NNE) 12:48:35 29.400 - 29.500 MHz
JAS-1B 21 Sep 12:52:55 12:58:36 23° 53° (NE) 13:03:39 435.800 - 435.900 CW/SSB
ITAMSAT 1 21 Sep 13:25:25 13:29:11 21° 56° (NE) 13:32:58 435.822 SSB
Gurwin Techsat 1B 21 Sep 13:27:25 13:29:40 13° 48° (NE) 13:31:55 435.225 FM
HO-68 21 Sep 13:28:22 13:33:23 21° 315° (NW) 13:38:25 435.675 MHz FM
Uribyol 2 21 Sep 13:28:49 13:32:48 23° 57° (ENE) 13:36:48 436.500 FM
Oscar 19 21 Sep 13:36:20 13:41:17 46° 66° (ENE) 13:46:15 437.125 CW, 437.150 USB
FUNcube-1 21 Sep 13:45:41 13:49:01 20° 301° (WNW) 13:52:19 145.950 - 145.970 MHz USB
Sapphire 21 Sep 13:45:50 13:51:15 86° 307° (NW) 13:56:44 437.095 MHz 1200 baud AX-25 AFSK
RS-15 21 Sep 13:53:53 14:04:54 77° 235° (SW) 14:16:21 29.354 - 29.394 USB, Beacon 29.352 USB
AO-27 21 Sep 13:59:45 14:04:27 36° 63° (ENE) 14:09:10 436.795 MHz FM
TMSAT-1 21 Sep 14:01:43 14:05:05 17° 53° (NE) 14:08:27 436.925 FM
AO-Echo 21 Sep 14:12:29 14:16:58 46° 67° (ENE) 14:21:28 ?
PCSat 21 Sep 14:12:52 14:18:12 56° 314° (NW) 14:23:34 145.825 MHz
Oscar 16 21 Sep 14:15:12 14:20:25 88° 254° (WSW) 14:25:40 437.025 USB, Beacon 2401.1428
AO-7 21 Sep 14:31:07 14:37:13 24° 40° (NE) 14:43:18 29.400 - 29.500 MHz
JAS-1B 21 Sep 14:40:24 14:48:36 85° 72° (ENE) 14:55:25 435.800 - 435.900 CW/SSB
ITAMSAT 1 21 Sep 15:02:59 15:08:09 77° 256° (WSW) 15:13:22 435.822 SSB
Gurwin Techsat 1B 21 Sep 15:03:25 15:08:37 59° 69° (ENE) 15:13:51 435.225 FM
Uribyol 2 21 Sep 15:06:41 15:11:50 69° 257° (WSW) 15:17:03 436.500 FM
Oscar 19 21 Sep 15:16:13 15:20:48 31° 266° (W) 15:25:25 437.125 CW, 437.150 USB
Uosat F 21 Sep 15:26:00 15:29:15 18° 54° (NE) 15:32:30 435.120 FM
Sapphire 21 Sep 15:30:57 15:35:27 26° 330° (NNW) 15:39:59 437.095 MHz 1200 baud AX-25 AFSK
TMSAT-1 21 Sep 15:38:59 15:44:16 84° 73° (ENE) 15:49:37 436.925 FM
AO-27 21 Sep 15:39:06 15:43:57 40° 263° (W) 15:48:50 436.795 MHz FM
AO-Echo 21 Sep 15:52:02 15:55:59 26° 267° (W) 15:59:56 ?
MaSat-1 21 Sep 15:52:23 15:54:15 13° 27° (NNE) 15:56:02 437.345 MHz
Oscar 16 21 Sep 15:57:39 16:00:33 15° 274° (W) 16:03:28 437.025 USB, Beacon 2401.1428
PCSat 21 Sep 15:58:46 16:02:47 21° 337° (NNW) 16:06:49 145.825 MHz
RS-15 21 Sep 16:07:23 16:15:30 24° 259° (W) 16:23:51 29.354 - 29.394 USB, Beacon 29.352 USB
AO-7 21 Sep 16:20:29 16:28:42 69° 64° (ENE) 16:36:56 29.400 - 29.500 MHz
JAS-1B 21 Sep 16:33:40 16:39:50 24° 270° (W) 16:45:20 435.800 - 435.900 CW/SSB
JAS-2 21 Sep 16:39:23 16:42:05 14° 49° (NE) 16:44:49 435.800 - 435.900 CW/SSB, 435.910 FM
Gurwin Techsat 1B 21 Sep 16:44:40 16:48:58 25° 268° (W) 16:53:19 435.225 FM
ITAMSAT 1 21 Sep 16:46:18 16:48:33 13° 275° (W) 16:50:48 435.822 SSB
Hamsat 21 Sep 16:48:49 16:49:34 10° 53° (NE) 16:50:19 145.90 MHz
Uribyol 2 21 Sep 16:50:50 16:52:19 11° 277° (W) 16:53:48 436.500 FM
Uosat F 21 Sep 17:02:24 17:07:24 89° 254° (WSW) 17:12:27 435.120 FM
Sapphire 21 Sep 17:17:42 17:20:48 15° 355° (N) 17:23:54 437.095 MHz 1200 baud AX-25 AFSK
TMSAT-1 21 Sep 17:21:30 17:24:54 17° 273° (W) 17:28:19 436.925 FM
MaSat-1 21 Sep 17:28:05 17:32:06 49° 51° (NE) 17:35:31 437.345 MHz
PCSat 21 Sep 17:45:14 17:48:19 15° 3° (N) 17:51:24 145.825 MHz
OPAL 21 Sep 18:06:38 18:11:21 34° 98° (E) 18:15:59 ?
Saudisat 1A 21 Sep 18:10:15 18:14:34 58° 126° (SE) 18:18:56 436.775 MHz
AO-7 21 Sep 18:14:44 18:22:06 35° 265° (W) 18:29:31 29.400 - 29.500 MHz
Hamsat 21 Sep 18:20:23 18:24:41 63° 72° (ENE) 18:29:00 145.90 MHz
JAS-2 21 Sep 18:21:09 18:26:18 74° 72° (ENE) 18:31:35 435.800 - 435.900 CW/SSB, 435.910 FM
Uosat F 21 Sep 18:44:14 18:46:56 15° 273° (W) 18:49:39 435.120 FM
HO-68 21 Sep 18:44:21 18:47:02 12° 34° (NNE) 18:49:43 435.675 MHz FM
Sapphire 21 Sep 19:02:24 19:06:22 20° 22° (NNE) 19:10:19 437.095 MHz 1200 baud AX-25 AFSK
MaSat-1 21 Sep 19:05:37 19:08:19 18° 255° (WSW) 19:10:46 437.345 MHz
KITSAT 1 21 Sep 19:07:32 19:13:53 26° 106° (ESE) 19:20:14 435.175 FM
PCSat 21 Sep 19:29:13 19:33:41 25° 29° (NNE) 19:38:08 145.825 MHz
OPAL 21 Sep 19:45:27 19:50:21 43° 298° (WNW) 19:55:09 ?
Saudisat 1A 21 Sep 19:50:28 19:54:26 31° 327° (NNW) 19:58:25 436.775 MHz
SO-67 21 Sep 19:52:02 19:55:29 88° 81° (E) 19:58:59 435.3500 MHz FM
Hamsat 21 Sep 19:58:08 20:01:03 17° 271° (W) 20:03:59 145.90 MHz
JAS-2 21 Sep 20:08:44 20:12:10 18° 272° (W) 20:15:37 435.800 - 435.900 CW/SSB, 435.910 FM
UKube-1 21 Sep 20:24:26 20:25:27 11° 51° (NE) 20:26:29 145.840 MHz, 145.915 MHz
HO-68 21 Sep 20:26:24 20:32:53 39° 57° (ENE) 20:39:23 435.675 MHz FM
STRAND 1 21 Sep 20:29:43 20:34:48 57° 101° (E) 20:39:52 ?
Sapphire 21 Sep 20:45:39 20:51:00 54° 46° (NE) 20:56:19 437.095 MHz 1200 baud AX-25 AFSK
KITSAT 1 21 Sep 21:00:14 21:08:21 90° 128° (SE) 21:16:30 435.175 FM
PCSat 21 Sep 21:12:27 21:17:56 81° 52° (NE) 21:23:22 145.825 MHz
Saudisat 1A 21 Sep 21:32:39 21:35:19 15° 351° (N) 21:37:59 436.775 MHz
FUNcube-1 21 Sep 21:35:31 21:38:19 17° 56° (ENE) 21:41:09 145.950 - 145.970 MHz USB
Oscar 11 21 Sep 21:37:54 21:41:46 32° 65° (ENE) 21:45:39 145.825 FM, Beacon 2401.500 USB
UKube-1 21 Sep 21:56:32 22:00:49 64° 71° (ENE) 22:05:08 145.840 MHz, 145.915 MHz
STRAND 1 21 Sep 22:09:28 22:13:42 27° 301° (WNW) 22:17:56 ?
HO-68 21 Sep 22:13:24 22:20:24 57° 258° (WSW) 22:27:28 435.675 MHz FM
Sapphire 21 Sep 22:29:24 22:34:16 34° 246° (WSW) 22:39:06 437.095 MHz 1200 baud AX-25 AFSK
SO-50 21 Sep 22:33:53 22:37:40 27° 117° (ESE) 22:41:31 436.795 FM
PCSat 21 Sep 22:56:48 23:00:45 21° 252° (WSW) 23:04:41 145.825 MHz
KITSAT 1 21 Sep 22:57:18 23:04:44 38° 333° (NNW) 23:12:12 435.175 FM
FUNcube-1 21 Sep 23:09:37 23:14:06 83° 256° (WSW) 23:18:42 145.950 - 145.970 MHz USB
Saudisat 1A 21 Sep 23:13:35 23:16:32 17° 15° (NNE) 23:19:29 436.775 MHz
Oscar 11 21 Sep 23:13:56 23:17:55 34° 264° (W) 23:21:57 145.825 FM, Beacon 2401.500 USB
UKube-1 21 Sep 23:34:36 23:37:27 17° 270° (W) 23:40:20 145.840 MHz, 145.915 MHz
UOSAT-12 21 Sep 23:58:52 00:02:05 19° 113° (ESE) 00:05:20 437.025 FM, 437.400 FM
AO-40 22 Sep 00:00:11 00:46:22 11° 116° (ESE) 01:21:34 Beacon 2401.320
HO-68 22 Sep 00:07:23 00:09:45 12° 280° (W) 00:12:07 435.675 MHz FM
SO-50 22 Sep 00:13:28 00:17:56 58° 318° (NW) 00:22:34 436.795 FM
FUNcube-1 22 Sep 00:49:43 00:51:16 12° 276° (W) 00:52:51 145.950 - 145.970 MHz USB
Saudisat 1A 22 Sep 00:52:58 00:57:12 42° 38° (NE) 01:01:25 436.775 MHz
KITSAT 1 22 Sep 00:55:47 01:02:34 28° 2° (N) 01:09:20 435.175 FM
UOSAT-12 22 Sep 01:37:00 01:41:41 82° 313° (NW) 01:46:27 437.025 FM, 437.400 FM
Oscar 19 22 Sep 01:45:33 01:46:27 10° 83° (E) 01:47:20 437.125 CW, 437.150 USB
SO-50 22 Sep 01:55:58 01:59:27 21° 341° (NNW) 02:03:01 436.795 FM
JAS-1B 22 Sep 02:21:59 02:24:31 13° 83° (E) 02:27:02 435.800 - 435.900 CW/SSB
Oscar 16 22 Sep 02:22:19 02:26:24 23° 91° (E) 02:30:27 437.025 USB, Beacon 2401.1428
Saudisat 1A 22 Sep 02:32:41 02:36:46 37° 239° (WSW) 02:40:50 436.775 MHz
ISS 22 Sep 02:46:39 02:48:46 16° 141° (SE) 02:50:54 145.800 FM
KITSAT 1 22 Sep 02:52:37 03:00:15 42° 31° (NNE) 03:07:50 435.175 FM
ITAMSAT 1 22 Sep 03:11:00 03:15:22 26° 93° (E) 03:19:42 435.822 SSB
Uribyol 2 22 Sep 03:14:25 03:18:58 29° 94° (E) 03:23:30 436.500 FM
Gurwin Techsat 1B 22 Sep 03:15:32 03:18:43 16° 86° (E) 03:21:52 435.225 FM
UOSAT-12 22 Sep 03:18:38 03:22:31 25° 335° (NNW) 03:26:27 437.025 FM, 437.400 FM
Oscar 19 22 Sep 03:21:39 03:26:50 66° 102° (ESE) 03:31:57 437.125 CW, 437.150 USB
